• In Netherlands
  • List of Countries
  • For 7 days
  • Water Temperature
  • Satellite Maps
  • Weather Map
  • Weather Widgets
  • user-avatar
    Login

    Hourly Weather Sankt Polten

    Today, 18 August, Friday

    Time Temperature Precipitation Wind Pressure Humidity
    00:00 +21°C° 0 mm 1 mps 738 mmHg 74%
    01:00 +21°C° 0 mm 1 mps 738 mmHg 76%
    02:00 +20°C° 0 mm 1 mps 738 mmHg 76%
    03:00 +20°C° 0 mm 1 mps 738 mmHg 77%
    04:00 +20°C° 0 mm 1 mps 738 mmHg 78%
    05:00 +21°C° 0 mm 1 mps 738 mmHg 75%
    06:00 +22°C° 0 mm 1 mps 738 mmHg 72%
    07:00 +21°C° 0 mm 0 mps 738 mmHg 70%
    08:00 +26°C° 0 mm 1 mps 738 mmHg 62%
    09:00 +28°C° 0 mm 1 mps 738 mmHg 55%
    10:00 +30°C° 0 mm 1 mps 738 mmHg 47%
    11:00 +31°C° 0 mm 2 mps 738 mmHg 44%
    12:00 +32°C° 0 mm 2 mps 737 mmHg 41%
    13:00 +34°C° 0 mm 2 mps 737 mmHg 37%
    14:00 +34°C° 0 mm 3 mps 736 mmHg 38%
    15:00 +34°C° 0 mm 3 mps 736 mmHg 38%
    16:00 +34°C° 0 mm 3 mps 735 mmHg 38%
    17:00 +31°C° 0 mm 3 mps 735 mmHg 46%
    18:00 +29°C° 0 mm 2 mps 734 mmHg 54%
    19:00 +26°C° 0 mm 2 mps 734 mmHg 62%
    20:00 +25°C° 0 mm 2 mps 734 mmHg 63%
    21:00 +24°C° 0 mm 2 mps 734 mmHg 64%
    22:00 +23°C° 0 mm 1 mps 735 mmHg 66%
    23:00 +23°C° 0 mm 2 mps 735 mmHg 68%

    Tomorrow, 19 August, Saturday

    Time Temperature Precipitation Wind Pressure Humidity
    00:00 +23°C° 0 mm 2 mps 735 mmHg 71%
    01:00 +21°C° 0 mm 2 mps 735 mmHg 73%
    02:00 +21°C° 0.1 mm 3 mps 735 mmHg 79%
    03:00 +20°C° 0.1 mm 3 mps 735 mmHg 84%
    04:00 +20°C° 0.1 mm 3 mps 736 mmHg 89%
    05:00 +20°C° 0.7 mm 3 mps 736 mmHg 89%
    06:00 +20°C° 0.7 mm 3 mps 736 mmHg 88%
    07:00 +20°C° 0.7 mm 4 mps 737 mmHg 87%
    08:00 +19°C° 1.8 mm 3 mps 737 mmHg 89%
    09:00 +18°C° 1.8 mm 3 mps 738 mmHg 90%
    10:00 +18°C° 1.8 mm 3 mps 738 mmHg 92%
    11:00 +18°C° 0.3 mm 3 mps 738 mmHg 91%
    12:00 +18°C° 0.3 mm 3 mps 739 mmHg 90%
    13:00 +18°C° 0.3 mm 3 mps 739 mmHg 90%
    14:00 +18°C° 0.1 mm 2 mps 739 mmHg 89%
    15:00 +18°C° 0.1 mm 2 mps 739 mmHg 88%
    16:00 +18°C° 0.1 mm 2 mps 739 mmHg 87%
    17:00 +18°C° 0 mm 2 mps 739 mmHg 88%
    18:00 +18°C° 0 mm 2 mps 739 mmHg 88%
    19:00 +17°C° 0 mm 2 mps 739 mmHg 89%
    20:00 +17°C° 0 mm 2 mps 739 mmHg 89%
    21:00 +16°C° 0 mm 2 mps 739 mmHg 89%
    22:00 +16°C° 0 mm 2 mps 740 mmHg 90%
    23:00 +16°C° 0 mm 2 mps 740 mmHg 90%

    Day after tomorrow, 20 August, Sunday

    Time Temperature Precipitation Wind Pressure Humidity
    00:00 +15°C° 0 mm 2 mps 740 mmHg 90%
    01:00 +15°C° 0 mm 2 mps 740 mmHg 91%
    02:00 +15°C° 0 mm 2 mps 740 mmHg 90%
    03:00 +14°C° 0 mm 2 mps 740 mmHg 90%
    04:00 +14°C° 0 mm 2 mps 740 mmHg 90%
    05:00 +15°C° 0 mm 2 mps 740 mmHg 86%
    06:00 +15°C° 0 mm 2 mps 740 mmHg 82%
    07:00 +16°C° 0 mm 2 mps 740 mmHg 79%
    08:00 +18°C° 0 mm 3 mps 740 mmHg 69%
    09:00 +19°C° 0 mm 3 mps 741 mmHg 60%
    10:00 +21°C° 0 mm 4 mps 741 mmHg 50%
    11:00 +21°C° 0 mm 4 mps 740 mmHg 49%
    12:00 +22°C° 0 mm 4 mps 740 mmHg 48%
    13:00 +22°C° 0 mm 4 mps 740 mmHg 47%
    14:00 +22°C° 0.1 mm 4 mps 740 mmHg 48%
    15:00 +22°C° 0.1 mm 4 mps 740 mmHg 49%
    16:00 +22°C° 0.1 mm 3 mps 740 mmHg 50%
    17:00 +20°C° 0.1 mm 3 mps 740 mmHg 58%
    18:00 +19°C° 0.1 mm 2 mps 740 mmHg 66%
    19:00 +17°C° 0.1 mm 2 mps 740 mmHg 73%
    20:00 +16°C° 0 mm 2 mps 740 mmHg 77%
    21:00 +15°C° 0 mm 2 mps 741 mmHg 80%
    22:00 +14°C° 0 mm 2 mps 741 mmHg 84%
    23:00 +14°C° 0 mm 2 mps 741 mmHg 84%

    21 August, Monday

    Time Temperature Precipitation Wind Pressure Humidity
    00:00 +14°C° 0 mm 2 mps 741 mmHg 85%
    01:00 +13°C° 0 mm 2 mps 741 mmHg 86%
    02:00 +13°C° 0 mm 2 mps 741 mmHg 87%
    03:00 +13°C° 0 mm 2 mps 741 mmHg 87%
    04:00 +12°C° 0 mm 2 mps 741 mmHg 88%
    05:00 +13°C° 0 mm 2 mps 741 mmHg 84%
    06:00 +14°C° 0 mm 2 mps 741 mmHg 80%
    07:00 +15°C° 0 mm 2 mps 741 mmHg 76%
    08:00 +17°C° 0 mm 3 mps 741 mmHg 68%
    09:00 +19°C° 0 mm 3 mps 741 mmHg 60%
    10:00 +20°C° 0 mm 3 mps 741 mmHg 51%
    11:00 +21°C° 0 mm 3 mps 741 mmHg 49%
    12:00 +22°C° 0 mm 3 mps 740 mmHg 46%
    13:00 +24°C° 0 mm 3 mps 740 mmHg 43%
    14:00 +24°C° 0 mm 3 mps 740 mmHg 43%
    15:00 +24°C° 0 mm 3 mps 739 mmHg 44%
    16:00 +24°C° 0 mm 3 mps 739 mmHg 44%
    17:00 +21°C° 0 mm 3 mps 739 mmHg 53%
    18:00 +19°C° 0 mm 2 mps 739 mmHg 61%
    19:00 +18°C° 0 mm 1 mps 739 mmHg 69%
    20:00 +16°C° 0 mm 1 mps 739 mmHg 72%
    21:00 +15°C° 0 mm 1 mps 740 mmHg 75%
    22:00 +14°C° 0 mm 1 mps 740 mmHg 79%
    23:00 +14°C° 0 mm 1 mps 740 mmHg 80%

    22 August, Tuesday

    Time Temperature Precipitation Wind Pressure Humidity
    00:00 +14°C° 0 mm 1 mps 740 mmHg 81%
    01:00 +14°C° 0 mm 1 mps 740 mmHg 83%
    02:00 +13°C° 0 mm 1 mps 740 mmHg 83%
    03:00 +13°C° 0 mm 1 mps 740 mmHg 84%
    04:00 +13°C° 0 mm 1 mps 739 mmHg 84%
    05:00 +14°C° 0 mm 1 mps 740 mmHg 81%
    06:00 +16°C° 0 mm 1 mps 740 mmHg 77%
    07:00 +16°C° 0 mm 0 mps 740 mmHg 73%
    08:00 +18°C° 0 mm 0 mps 740 mmHg 66%
    09:00 +21°C° 0 mm 0 mps 739 mmHg 59%
    10:00 +25°C° 0 mm 1 mps 739 mmHg 52%
    11:00 +26°C° 0 mm 1 mps 739 mmHg 50%
    12:00 +27°C° 0 mm 1 mps 738 mmHg 48%
    13:00 +28°C° 0 mm 1 mps 738 mmHg 47%
    14:00 +28°C° 0 mm 1 mps 737 mmHg 47%
    15:00 +28°C° 0 mm 1 mps 737 mmHg 47%
    16:00 +28°C° 0 mm 1 mps 736 mmHg 47%
    17:00 +26°C° 0 mm 1 mps 736 mmHg 55%
    18:00 +24°C° 0 mm 1 mps 736 mmHg 62%
    19:00 +22°C° 0 mm 1 mps 736 mmHg 70%
    20:00 +21°C° 0 mm 1 mps 736 mmHg 71%
    21:00 +20°C° 0 mm 1 mps 736 mmHg 73%
    22:00 +19°C° 0 mm 1 mps 736 mmHg 74%
    23:00 +19°C° 0 mm 1 mps 736 mmHg 75%

    23 August, Wednesday

    Time Temperature Precipitation Wind Pressure Humidity
    00:00 +18°C° 0 mm 1 mps 736 mmHg 75%
    01:00 +18°C° 0 mm 1 mps 735 mmHg 76%
    02:00 +18°C° 0 mm 1 mps 735 mmHg 76%
    03:00 +16°C° 0 mm 1 mps 735 mmHg 77%
    04:00 +16°C° 0 mm 1 mps 735 mmHg 78%
    05:00 +18°C° 0 mm 1 mps 735 mmHg 75%
    06:00 +20°C° 0 mm 1 mps 735 mmHg 72%
    07:00 +21°C° 0 mm 1 mps 735 mmHg 69%
    08:00 +24°C° 0 mm 1 mps 735 mmHg 62%
    09:00 +26°C° 0 mm 1 mps 735 mmHg 54%
    10:00 +29°C° 0 mm 1 mps 735 mmHg 46%
    11:00 +30°C° 0 mm 2 mps 735 mmHg 45%
    12:00 +31°C° 0 mm 2 mps 735 mmHg 44%
    13:00 +31°C° 0 mm 2 mps 735 mmHg 42%
    14:00 +31°C° 0 mm 2 mps 735 mmHg 44%
    15:00 +30°C° 0 mm 2 mps 735 mmHg 47%
    16:00 +30°C° 0 mm 1 mps 734 mmHg 49%
    17:00 +28°C° 0.2 mm 1 mps 735 mmHg 57%
    18:00 +25°C° 0.2 mm 1 mps 735 mmHg 65%
    19:00 +23°C° 0.2 mm 1 mps 735 mmHg 73%
    20:00 +23°C° 0.3 mm 1 mps 735 mmHg 75%
    21:00 +22°C° 0.3 mm 1 mps 735 mmHg 77%
    22:00 +21°C° 0.3 mm 1 mps 735 mmHg 79%
    23:00 +21°C° 0 mm 1 mps 735 mmHg 79%
    Show more